Weather History for Barksdale AFB, LA

Change the Weather History Date:

Saturday, June 22, 2013

  Actual Average Record
Temperature  
Mean Temperature 80 °F -  
Max Temperature 91 °F 86 °F 95 °F (1998)
Min Temperature 70 °F 69 °F 66 °F (2002)
Cooling Degree Days 15    
Growing Degree Days 30 (Base 50)    
Moisture  
Dew Point 72 °F    
Average Humidity 81    
Maximum Humidity 100    
Minimum Humidity 56    
Precipitation  
Precipitation 0.00 in - - ()
Sea Level Pressure  
Sea Level Pressure 30.04 in    
Wind  
Wind Speed 5 mph (SSE)    
Max Wind Speed 14 mph    
Max Gust Speed -    
Visibility 10 miles    
Events Rain , Thunderstorm    
Averages and records for this station are not official NWS values.
T = Trace of Precipitation, MM = Missing Value Source: NWS Daily Summary

Daily Weather History Graph

Daily Weather History Graph

Search for Another Location

Airport:

Trip Planner

Search our weather history database for the weather conditions in past years. The results will help you decide how hot, cold, wet, or windy it might be!

Date:

Astronomy

Jun. 22, 2013 Rise Set
Actual Time 6:08 AM CDT 8:25 PM CDT
Civil Twilight 5:39 AM CDT 8:53 PM CDT
Nautical Twilight 5:04 AM CDT 9:28 PM CDT
Astronomical Twilight 4:26 AM CDT 10:06 PM CDT
Moon 7:44 PM CDT (6/22) 5:18 AM CDT (6/22)
Length of Visible Light 15h 14m
Length of Day
14h 17m
Waxing Gibbous, 99% of the Moon is Illuminated
Jun 22
Waxing Gibbous
Jun 23
Full
Jun 29
Last Quarter
Jul 8
New
Jul 15
First Quarter

Hourly Weather History & Observations

Time (CDT) Temp. Heat Index Dew Point Humidity Pressure Visibility Wind Dir Wind Speed Gust Speed Precip Events Conditions
12:58 AM 74.7 °F - 71.2 °F 89% 30.06 in 10.0 mi ESE 4.6 mph - N/A   Clear
1:58 AM 72.5 °F - 70.7 °F 94% 30.05 in 10.0 mi ESE 3.5 mph - N/A   Clear
2:58 AM 72.1 °F - 70.7 °F 95% 30.05 in 10.0 mi SSE 3.5 mph - N/A   Clear
3:58 AM 71.4 °F - 70.5 °F 97% 30.04 in 10.0 mi ESE 4.6 mph - N/A   Clear
4:58 AM 70.9 °F - 70.9 °F 100% 30.04 in 10.0 mi SSE 4.6 mph - N/A   Clear
5:58 AM 70.9 °F - 70.9 °F 100% 30.05 in 10.0 mi SE 3.5 mph - N/A   Clear
6:22 AM 71.6 °F - 71.6 °F 100% 30.05 in 10.0 mi Calm Calm - N/A   Clear
6:29 AM 71.6 °F - 71.6 °F 100% 30.05 in 10.0 mi ESE 1.2 mph - N/A Rain Light Rain
6:40 AM 71.6 °F - 71.6 °F 100% 30.06 in 10.0 mi SE 2.3 mph - N/A   Clear
6:42 AM 71.6 °F - 71.6 °F 100% 30.06 in 10.0 mi SE 2.3 mph - N/A Rain Light Rain
6:58 AM 72.3 °F - 72.3 °F 100% 30.06 in 10.0 mi ESE 4.6 mph - 0.00 in   Clear
7:08 AM 73.4 °F - 73.4 °F 100% 30.06 in 10.0 mi SSE 2.3 mph - N/A   Clear
7:58 AM 77.2 °F - 73.2 °F 88% 30.08 in 10.0 mi South 5.8 mph - 0.00 in   Clear
8:58 AM 80.6 °F 85.4 °F 73.4 °F 79% 30.09 in 10.0 mi SW 5.8 mph - N/A   Clear
9:58 AM 84.4 °F 90.3 °F 72.5 °F 67% 30.09 in 10.0 mi WSW 4.6 mph - N/A   Clear
10:58 AM 87.1 °F 92.8 °F 71.1 °F 59% 30.09 in 10.0 mi South 6.9 mph - N/A   Clear
11:58 AM 87.6 °F 94.8 °F 72.9 °F 61% 30.09 in 10.0 mi SSE 8.1 mph - N/A   Clear
12:58 PM 88.7 °F 96.7 °F 73.4 °F 60% 30.09 in 10.0 mi South 5.8 mph - N/A   Partly Cloudy
1:58 PM 89.2 °F 97.4 °F 73.4 °F 59% 30.06 in 10.0 mi SSE 6.9 mph - N/A   Partly Cloudy
2:58 PM 87.8 °F 95.6 °F 73.4 °F 62% 30.04 in 10.0 mi SE 5.8 mph - N/A   Partly Cloudy
3:58 PM 90.1 °F 97.8 °F 72.7 °F 56% 30.03 in 10.0 mi SSE 8.1 mph - N/A   Partly Cloudy
4:58 PM 88.2 °F 96.9 °F 73.9 °F 63% 30.01 in 10.0 mi SE 10.4 mph - N/A Thunderstorm Scattered Clouds
5:22 PM 82.4 °F 86.3 °F 69.8 °F 66% 30.00 in 10.0 mi South 13.8 mph - N/A Rain Light Rain
5:34 PM 82.4 °F 86.3 °F 69.8 °F 66% 30.00 in 10.0 mi South 8.1 mph - N/A   Scattered Clouds
5:58 PM 83.8 °F 88.6 °F 71.1 °F 65% 29.99 in 10.0 mi SSE 5.8 mph - 0.00 in   Partly Cloudy
6:58 PM 86.4 °F 92.6 °F 72.1 °F 62% 29.98 in 10.0 mi SSE 5.8 mph - N/A   Clear
7:58 PM 83.8 °F 91.1 °F 74.5 °F 73% 29.97 in 10.0 mi SE 5.8 mph - N/A   Clear
8:58 PM 80.1 °F 84.5 °F 73.9 °F 81% 29.98 in 10.0 mi ESE 5.8 mph - N/A   Clear
9:58 PM 78.3 °F - 73.9 °F 87% 29.99 in 10.0 mi SSE 5.8 mph - N/A   Clear
10:58 PM 77.5 °F - 73.2 °F 86% 30.00 in 10.0 mi SE 4.6 mph - N/A   Clear
11:58 PM 76.6 °F - 72.7 °F 87% 30.01 in 9.0 mi SE 5.8 mph - N/A   Clear